Location: Greenwich
(51.4790°N, 0.0090°E)
Time: 21:34:19
(UTC+00:00)

BlueWalker 3 - Visible Passes

Search period start: 03 December 2023 00:00
Search period end: 13 December 2023 00:00
Orbit: 489 x 503 km, 53.2° (Epoch: 03 December)

Date Brightness Start Highest point End Pass type
(mag) Time Alt. Az. Time Alt. Az. Time Alt. Az.
03 Dec 3.1 05:15:36 33° S 05:15:36 33° S 05:18:21 10° SE visible
04 Dec 3.9 04:54:08 21° SSE 04:54:08 21° SSE 04:55:42 10° SE visible
05 Dec 4.8 04:32:42 12° SSE 04:32:42 12° SSE 04:33:03 10° SE visible
